Regional Weather Roundup
Issued by NWS

Home | Current Version | Previous Version | Graphics & Text | Print | Product List | Glossary On
Versions: 1 2 3 4 5 6 7 8 9 10 11 12 13 14 15 16 17 18 19 20 21 22 23 24 25 26 27 28 29 30 31 32 33 34 35 36 37 38 39 40 41 42 43 44 45 46 47 48 49 50
000
ASUS45 KBOU 211307
RWRCO

WEATHER ROUNDUP FOR COLORADO
NATIONAL WEATHER SERVICE DENVER/BOULDER CO
700 AM MDT THU AUG 21 2014

NOTE: "FAIR" INDICATES FEW OR NO CLOUDS BELOW 12000 FEET WITH NO
SIGNIFICANT WEATHER AND/OR OBSTRUCTIONS TO VISIBILITY.

COZ001>005-013-030-031-211400-
...NORTHWEST COLORADO...

CITY           SKY/WX    TMP DP  RH WIND       PRES   REMARKS
CRAIG          CLEAR     53  50  89 SE5       30.21R
HAYDEN         CLEAR     50  45  81 E12       30.23R
MEEKER         CLEAR     52  48  86 E7        30.22R
MOUNT WERNER   NOT AVBL
STEAMBOAT SPGS CLEAR     47  46  95 W3        30.25R
WALDEN         CLOUDY    46  43  87 S3        30.29R
$$

COZ006>008-011-211400-
...WEST CENTRAL VALLEYS...

CITY           SKY/WX    TMP DP  RH WIND       PRES   REMARKS
GRAND JUNCTION PTCLDY    55  49  80 SE8       30.14R
MONTROSE       CLEAR     53  45  74 S6        30.22R
EAGLE          PTCLDY    48  46  93 CALM      30.27S
RIFLE          CLEAR     54  49  83 S3        30.19R
DELTA          CLEAR     57  47  69 NE3       30.19R
NUCLA          CLEAR     52  43  71 E6        30.25R
$$

COZ017>023-064>068-211400-
...SOUTHWEST COLORADO...

CITY           SKY/WX    TMP DP  RH WIND       PRES   REMARKS
DURANGO        CLEAR     48  40  73 N3        30.23R
CORTEZ         CLEAR     48  43  82 E3        30.21R
PAGOSA SPRINGS   N/A     44  42  91 CALM      30.30R
TELLURIDE      PTCLDY    46  39  76 SE5       30.39R
WOLF CREEK PAS NOT AVBL
$$

COZ009-010-012-014-032>034-037-058>063-211400-
...CENTRAL COLORADO...

CITY           SKY/WX    TMP DP  RH WIND       PRES   REMARKS
ASPEN          CLEAR     46  41  82 SW5       30.30R
BUENA VISTA    CLEAR     52  39  62 N8        30.29R
COPPER MTN     CLOUDY    45  37  76 W12       30.53R
BERTHOUD PASS  FOG       34  32  93 NW20G28   30.53R VSB 1/4 WCI  22
COTTONWOOD PAS CLEAR     52  36  54 W12G24    30.39R
GUNNISON       CLEAR     43  36  75 CALM      30.35R
KREMMLING      PTCLDY    50  45  81 CALM      30.30S
LEADVILLE      PTCLDY    40  36  86 NE8       30.40R
MONARCH PASS   CLEAR     37  36  93 W23       30.62R
SALIDA         NOT AVBL
SUNLIGHT       CLEAR     43  39  87 CALM      30.47S
WILKERSON PASS NOT AVBL
$$

COZ069>075-211400-
...SAN LUIS VALLEY/SANGRE DE CRISTO MOUNTAINS...

CITY           SKY/WX    TMP DP  RH WIND       PRES   REMARKS
ALAMOSA        CLEAR     45  39  79 CALM      30.28R
LA VETA PASS   NOT AVBL
SAGUACHE       CLEAR     50  41  71 NW13      30.31R
$$

COZ035-036-038>040-211400-
...NORTHERN COLORADO FRONT RANGE...

CITY           SKY/WX    TMP DP  RH WIND       PRES   REMARKS
DENVER INTL AP PTCLDY    60  53  77 SW13      30.08R
DMNS CITY PARK   N/A     61  54  77 S7        30.08S
AURORA         PTCLDY    58  52  79 S8        30.11R
FRONT RANGE AP NOT AVBL
ERIE MUNI ARPT CLEAR     57  53  89 CALM      30.08R
BOULDER MUN AP CLEAR     61  50  67 SW5       30.08R
CENTENNIAL     PTCLDY    59  49  69 S5        30.12R
BROOMFIELD     PTCLDY    57  50  77 W10       30.08F
FORT COLLINS   PTCLDY    57  52  82 N6        30.09R
LONGMONT       PTCLDY    57  51  79 CALM      30.09R
$$

COZ041-046-047-076>085-087-088-211400-
...PIKES PEAK/PALMER DIVIDE AND SOUTHERN FOOTHILLS...

CITY           SKY/WX    TMP DP  RH WIND       PRES   REMARKS
COLO. SPRINGS  PTCLDY    61  49  64 NW8       30.16R
A. F. ACADEMY  CLEAR     55  47  76 N8        30.17R
ELLICOTT       CLEAR     57  51  80 CALM      30.13R
FALCON         CLEAR     59  47  63 N6        30.20R
FORT CARSON    CLEAR     63  50  63 W5        30.13R
LIMON          PTCLDY    56  54  93 W9        30.08R
MONUMENT HILL  PTCLDY    52  46  82 S5        30.19R
TRINIDAD       CLEAR     57  47  69 W9        30.14R
$$

COZ042>045-048>051-090-091-211400-
...NORTHEAST COLORADO...

CITY           SKY/WX    TMP DP  RH WIND       PRES   REMARKS
GREELEY ARPT   CLEAR     57  48  72 CALM      30.06R
AKRON          PTCLDY    63  56  78 NW10      30.03R
BURLINGTON     PTCLDY    63  56  78 NW7       29.97R
WRAY             N/A     66  60  78 W6        29.95R
STERLING       PTCLDY    64  59  82 SW3       29.99R
HOLYOKE        NOT AVBL
FORT MORGAN    PTCLDY    60  55  85 SW5       30.04R
$$

COZ086-089-092>099-211400-
...SOUTHEAST COLORADO...

CITY           SKY/WX    TMP DP  RH WIND       PRES   REMARKS
PUEBLO         CLEAR     64  51  62 NW7       30.06R
LA JUNTA       CLEAR     65  56  72 W10       30.02R
LAMAR          CLEAR     65  56  72 W6        29.96R
SPRINGFIELD      N/A     65  54  67 NW8       30.00R
$$


USA.gov is the U.S. government's official web portal to all federal, state and local government web resources and services.